Wind_Speed
15 14 14 14 15 15 14 13 7 4 7 8 7 18 26 22 20 17 17 17 14 12 13 12 10 6 3 8 17 26 24 40 43 43 46 45 44 42
17 16 13 14 15 14 15 15 14 11 5 11 21 28 24 23 19 17 15 14 13 10 12 9 7 5 3 1 14 32 14 16 31 38 40 42 42 41
16 13 13 14 16 16 15 15 15 15 9 20 21 26 24 19 17 14 14 11 10 9 9 9 3 1 3 2 15 30 17 17 10 24 37 39 41 40
16 15 17 16 18 19 18 14 18 17 15 14 21 21 20 16 14 14 14 7 10 7 7 4 1 2 4 2 8 31 22 12 14 20 25 38 40 39
16 18 19 19 20 19 17 19 18 16 15 16 18 16 16 16 14 13 11 7 8 5 4 5 3 1 1 2 7 28 26 22 26 23 19 36 40 40
17 18 19 21 22 19 21 21 14 12 14 17 17 10 15 12 10 11 13 9 8 1 5 4 3 3 1 1 9 17 36 30 23 24 19 37 39 40
19 19 22 21 20 20 22 17 14 14 15 17 12 9 12 6 6 7 8 12 4 1 0 2 2 2 4 2 10 14 32 41 35 29 18 36 39 39
21 20 21 21 22 21 18 14 11 12 8 5 5 5 7 11 5 7 7 5 1 1 1 2 2 2 2 5 9 15 19 36 33 32 21 34 38 38
19 22 23 23 22 22 20 14 9 9 10 11 11 11 13 10 6 7 7 6 3 1 3 1 1 4 2 3 4 11 19 32 35 32 30 22 39 41
20 21 23 25 23 23 20 17 13 8 8 11 14 14 13 10 9 8 6 6 3 1 3 1 2 3 4 4 5 10 18 23 31 34 31 27 22 31
20 22 21 26 23 21 19 19 17 12 7 7 9 11 8 7 6 6 7 4 1 1 2 3 2 5 5 5 3 7 18 21 25 30 29 23 20 24
20 22 23 25 22 20 18 18 17 16 11 7 2 4 4 5 7 7 6 6 2 1 3 2 5 3 2 5 4 8 15 21 25 26 32 32 28 23
21 24 27 25 21 19 18 18 14 11 10 10 12 8 5 5 5 4 8 10 5 2 5 4 5 3 3 3 7 8 13 21 23 24 29 35 31 24
22 25 25 22 21 20 22 19 17 17 15 15 16 14 11 8 7 7 7 6 5 3 5 4 4 4 4 3 4 9 13 17 18 23 28 31 34 26
20 21 21 22 22 23 24 24 23 22 19 18 17 15 13 9 11 11 11 10 9 8 4 2 4 7 7 8 6 6 12 15 17 22 23 27 31 30
23 23 25 25 26 27 28 28 27 24 22 20 19 17 16 15 14 13 15 16 19 17 12 10 10 10 15 15 17 15 18 7 20 22 25 24 25 26
22 26 30 31 31 32 30 30 29 28 27 24 22 20 19 18 18 16 18 19 15 15 20 23 19 19 22 20 20 18 19 22 22 24 24 23 19 20
27 25 25 26 25 26 27 28 29 29 26 24 23 22 21 19 19 18 19 20 17 17 17 15 18 20 23 28 22 19 21 22 21 23 26 29 20 15
28 26 25 27 26 27 27 26 26 27 24 25 22 21 21 20 19 18 18 19 20 19 17 13 11 13 9 6 15 15 19 21 23 23 21 24 27 21
30 26 27 28 28 27 27 27 27 26 25 24 23 21 19 18 19 18 18 19 19 19 22 21 20 15 12 6 11 24 15 21 26 31 34 34 33 25
31 30 28 28 28 27 26 25 25 24 23 23 21 20 19 20 21 21 21 21 22 20 20 20 22 28 27 24 25 29 29 23 26 30 31 32 28 29
29 29 29 28 28 27 27 26 25 24 23 22 20 20 19 20 20 21 20 19 20 21 22 24 23 25 25 26 25 26 31 29 24 21 17 18 11 9
26 27 28 28 27 26 26 26 25 23 20 19 19 19 19 22 21 23 24 22 20 22 23 25 27 29 27 25 27 27 30 32 36 41 41 29 33 37
Wind_Direction
341 336 323 315 312 306 300 293 294 306 309 305 300 308 321 325 327 324 317 316 311 309 314 316 325 339 344 307 138 187 154 181 183 186 185 182 182 181
342 333 335 324 316 312 308 302 291 279 280 296 299 305 318 319 324 318 318 316 310 304 298 302 308 320 320 158 130 166 198 125 167 184 188 186 185 182
345 340 340 328 323 323 315 308 295 286 277 294 294 308 313 316 325 323 331 324 317 300 293 293 274 287 347 184 136 169 174 205 182 177 185 191 188 184
345 339 330 325 323 327 319 308 306 295 280 284 295 308 308 326 324 331 328 318 317 307 288 253 273 335 30 185 137 148 196 194 223 203 189 191 190 186
342 335 332 327 322 322 318 309 305 296 279 270 283 303 298 327 328 334 329 330 318 313 280 213 178 179 42 136 175 153 175 207 213 199 201 192 191 187
339 340 333 328 318 320 315 311 306 289 286 277 283 280 305 318 331 338 332 340 346 229 86 177 187 220 172 117 189 165 182 197 198 194 204 191 190 187
338 337 332 328 325 322 319 317 304 290 290 286 277 283 296 309 347 325 306 321 334 19 128 150 180 261 261 155 193 190 179 184 192 187 172 189 188 188
339 341 340 338 335 332 332 319 300 295 294 274 265 264 274 297 297 307 305 322 319 69 162 222 191 254 259 194 171 201 187 182 191 191 185 184 186 186
345 342 340 345 342 343 340 336 315 290 275 271 264 270 286 288 302 294 290 308 342 97 139 29 158 116 164 189 186 195 197 189 189 188 196 164 178 187
349 345 347 346 348 346 344 348 344 316 288 274 270 280 279 279 266 254 261 295 303 82 141 101 129 101 118 165 188 176 194 200 194 188 196 193 162 171
347 351 348 351 350 350 353 355 354 351 332 297 269 267 262 246 234 229 236 221 231 102 166 115 139 94 89 95 175 175 185 184 196 200 201 193 176 167
349 352 357 357 355 358 2 2 348 347 348 353 8 244 221 209 209 216 200 196 150 128 167 130 147 138 55 54 115 186 174 176 185 195 198 187 191 197
350 351 355 358 2 5 12 9 2 7 29 47 65 83 111 143 170 215 219 204 187 174 168 140 144 132 74 113 77 126 157 172 174 180 189 194 205 199
355 355 356 3 12 22 24 26 35 41 47 52 49 50 81 98 116 107 122 171 196 159 165 163 147 153 135 98 91 108 141 152 170 177 180 187 197 199
8 1 13 20 28 34 35 36 39 39 40 37 33 42 74 90 101 106 109 108 104 96 97 159 162 155 155 128 117 104 115 128 155 164 169 174 186 196
20 26 29 31 34 36 38 39 37 38 34 34 38 63 78 84 94 110 106 98 87 78 86 103 122 141 119 114 126 113 127 127 146 154 161 165 174 186
28 32 30 26 22 23 29 33 35 37 33 41 51 53 60 75 80 94 93 91 81 78 78 90 104 117 110 110 91 105 115 128 143 149 156 147 150 171
36 20 17 16 13 11 13 19 29 32 33 46 53 55 51 61 71 83 93 86 75 76 82 91 102 98 90 72 86 93 108 121 137 146 148 133 115 137
28 21 17 16 11 16 17 21 21 35 44 54 51 55 59 65 64 75 86 80 70 72 72 78 85 103 93 90 58 86 103 119 133 129 135 129 119 115
29 21 18 20 20 21 25 28 33 40 46 52 53 58 62 65 67 68 78 79 75 73 68 72 76 88 88 95 101 66 103 113 124 111 106 109 106 112
25 26 26 26 25 26 27 32 37 40 46 55 59 59 65 69 69 74 81 83 81 77 73 65 80 97 98 102 86 73 77 94 108 111 116 105 100 97
25 24 25 26 27 28 29 32 37 41 46 53 63 69 63 74 74 76 83 85 84 87 85 91 97 98 88 93 95 94 85 89 89 96 101 118 134 117
24 23 24 26 27 27 29 31 35 38 44 53 63 73 81 77 87 88 90 90 92 92 93 89 90 93 87 89 94 93 91 89 89 84 83 95 108 108
Height
807 804 802 800 798 796 794 792 790 784 779 774 772 769 767 764 762 759 758 756 754 753 751 746 743 747 745 749 742 749 751 766 778 786 794 801 809 817
804 801 799 798 796 794 792 790 789 786 781 775 772 769 765 762 759 757 754 752 751 750 748 750 749 746 751 745 739 748 756 766 777 786 794 802 809 815
802 800 798 796 794 792 789 787 785 783 779 773 770 767 764 761 758 754 753 751 749 748 747 745 748 749 745 743 744 751 761 771 778 786 793 801 808 814
802 799 797 794 792 789 786 784 781 779 777 772 767 766 763 760 757 756 752 750 749 746 745 745 744 744 742 745 749 749 755 768 781 786 792 799 806 813
802 799 796 792 789 786 783 780 777 775 773 771 766 765 762 759 756 754 752 750 749 746 743 744 746 748 749 747 749 752 762 772 782 784 790 797 805 812
801 798 794 790 786 782 779 775 773 771 769 767 764 763 761 760 757 754 751 749 748 747 744 745 746 749 751 752 753 755 763 769 772 781 787 794 803 811
800 797 793 788 784 780 775 772 769 767 766 763 762 761 759 758 758 756 753 750 748 747 747 747 748 748 751 753 756 759 763 769 776 782 785 793 801 810
799 795 791 786 781 777 772 768 766 764 762 761 760 759 758 757 757 756 753 751 749 748 748 748 749 749 749 751 753 759 760 764 772 783 789 793 800 809
798 794 789 784 779 774 770 766 763 761 760 759 758 757 755 755 754 754 753 752 750 750 750 748 747 752 750 749 754 756 760 766 772 780 787 792 799 808
798 793 788 784 778 773 768 764 760 758 756 755 754 753 752 752 752 753 753 753 751 750 750 750 749 749 755 756 760 759 762 766 771 780 785 789 798 805
798 793 788 783 778 773 768 763 759 755 753 751 750 749 749 749 750 751 752 752 750 750 751 751 750 751 753 757 756 760 764 766 772 776 783 786 794 806
798 793 788 783 778 773 768 764 759 755 751 748 746 746 746 746 748 748 749 751 751 751 752 753 753 753 753 753 757 759 761 767 776 779 785 793 799 804
800 794 789 784 778 773 769 764 760 755 751 748 746 745 745 745 746 747 748 751 752 753 753 754 754 756 755 757 758 756 759 766 771 777 785 790 793 801
802 797 791 785 780 775 770 765 760 756 752 750 748 747 747 747 748 748 748 749 751 752 751 754 755 756 756 760 759 759 762 763 769 776 785 792 796 803
804 799 793 787 782 777 772 768 763 760 756 753 751 749 748 749 748 748 750 751 751 750 750 750 753 758 760 758 760 762 762 767 774 777 784 790 795 803
806 801 796 791 786 781 776 771 768 765 762 758 755 754 753 751 752 752 752 752 753 754 754 754 755 757 757 759 762 767 769 773 778 781 787 792 797 802
811 805 798 793 789 785 781 777 774 770 767 764 761 759 758 757 756 756 755 756 758 760 760 761 762 761 762 765 768 772 773 776 781 784 788 793 798 804
814 810 806 801 798 794 789 784 780 776 774 772 769 766 764 762 763 762 763 764 765 765 765 766 767 768 766 771 775 777 779 783 786 789 792 793 801 807
820 816 813 808 804 800 796 792 787 784 781 778 776 774 773 771 770 770 771 770 769 769 770 770 770 769 772 780 786 786 785 786 788 792 794 796 804 811
826 823 819 815 810 806 802 797 793 789 787 784 782 781 779 779 780 777 774 774 775 776 776 776 776 776 776 782 790 795 791 791 792 795 800 805 811 817
832 829 825 820 816 811 807 803 800 797 794 791 789 788 787 784 781 781 783 782 781 783 785 786 786 785 786 787 793 798 800 801 801 802 809 811 817 824
840 835 831 826 821 817 813 809 805 802 800 798 796 795 793 792 791 790 790 790 792 793 793 793 793 793 794 795 800 804 808 810 812 812 814 815 818 825
846 842 837 832 827 823 819 815 811 809 806 804 802 800 799 799 799 798 798 798 798 797 799 800 802 803 805 807 809 812 813 817 820 821 825 826 826 831